Year,Month,Day,Hour,Minute,Value (Times are PST for temperature in C)
2017,06,24,00,00,13.20
2017,06,24,00,01,13.10
2017,06,24,00,02,13.10
2017,06,24,00,03,13.10
2017,06,24,00,04,13.10
2017,06,24,00,05,13.10
2017,06,24,00,06,13.10
2017,06,24,00,07,13.10
2017,06,24,00,08,13.10
2017,06,24,00,09,13.00
2017,06,24,00,10,13.00
2017,06,24,00,11,13.00
2017,06,24,00,12,12.90
2017,06,24,00,13,12.90
2017,06,24,00,14,12.90
2017,06,24,00,15,12.80
2017,06,24,00,16,12.80
2017,06,24,00,17,12.80
2017,06,24,00,18,12.80
2017,06,24,00,19,12.80
2017,06,24,00,20,12.70
2017,06,24,00,21,12.70
2017,06,24,00,22,12.70
2017,06,24,00,23,12.70
2017,06,24,00,24,12.60
2017,06,24,00,25,12.60
2017,06,24,00,26,12.60
2017,06,24,00,27,12.60
2017,06,24,00,28,12.60
2017,06,24,00,29,12.60
2017,06,24,00,30,12.50
2017,06,24,00,31,12.50
2017,06,24,00,32,12.50
2017,06,24,00,33,12.50
2017,06,24,00,34,12.40
2017,06,24,00,35,12.40
2017,06,24,00,36,12.40
2017,06,24,00,37,12.40
2017,06,24,00,38,12.40
2017,06,24,00,39,12.40
2017,06,24,00,40,12.40
2017,06,24,00,41,12.40
2017,06,24,00,42,12.30
2017,06,24,00,43,12.30
2017,06,24,00,44,12.30
2017,06,24,00,45,12.30
2017,06,24,00,46,12.30
2017,06,24,00,47,12.20
2017,06,24,00,48,12.20
2017,06,24,00,49,12.20
2017,06,24,00,50,12.20
2017,06,24,00,51,12.20
2017,06,24,00,52,12.10
2017,06,24,00,53,12.10
2017,06,24,00,54,12.10
2017,06,24,00,55,12.10
2017,06,24,00,56,12.10
2017,06,24,00,57,12.00
2017,06,24,00,58,12.00
2017,06,24,00,59,12.00
2017,06,24,01,00,11.90
2017,06,24,01,01,11.90
2017,06,24,01,02,11.90
2017,06,24,01,03,11.90
2017,06,24,01,04,11.80
2017,06,24,01,05,11.80
2017,06,24,01,06,11.80
2017,06,24,01,07,11.80
2017,06,24,01,08,11.80
2017,06,24,01,09,11.80
2017,06,24,01,10,11.70
2017,06,24,01,11,11.70
2017,06,24,01,12,11.70
2017,06,24,01,13,11.70
2017,06,24,01,14,11.70
2017,06,24,01,15,11.70
2017,06,24,01,16,11.70
2017,06,24,01,17,11.60
2017,06,24,01,18,11.60
2017,06,24,01,19,11.60
2017,06,24,01,20,11.60
2017,06,24,01,21,11.60
2017,06,24,01,22,11.50
2017,06,24,01,23,11.50
2017,06,24,01,24,11.50
2017,06,24,01,25,11.50
2017,06,24,01,26,11.40
2017,06,24,01,27,11.40
2017,06,24,01,28,11.40
2017,06,24,01,29,11.40
2017,06,24,01,30,11.40
2017,06,24,01,31,11.40
2017,06,24,01,32,11.40
2017,06,24,01,33,11.40
2017,06,24,01,34,11.30
2017,06,24,01,35,11.30
2017,06,24,01,36,11.30
2017,06,24,01,37,11.30
2017,06,24,01,38,11.30
2017,06,24,01,39,11.30
2017,06,24,01,40,11.30
2017,06,24,01,41,11.30
2017,06,24,01,42,11.30
2017,06,24,01,43,11.30
2017,06,24,01,44,11.30
2017,06,24,01,45,11.30
2017,06,24,01,46,11.20
2017,06,24,01,47,11.20
2017,06,24,01,48,11.20
2017,06,24,01,49,11.20
2017,06,24,01,50,11.20
2017,06,24,01,51,11.20
2017,06,24,01,52,11.10
2017,06,24,01,53,11.10
2017,06,24,01,54,11.10
2017,06,24,01,55,11.10
2017,06,24,01,56,11.10
2017,06,24,01,57,11.10
2017,06,24,01,58,11.10
2017,06,24,01,59,11.10
2017,06,24,02,00,11.00
2017,06,24,02,01,11.00
2017,06,24,02,02,11.00
2017,06,24,02,03,11.00
2017,06,24,02,04,11.00
2017,06,24,02,05,11.00
2017,06,24,02,06,10.90
2017,06,24,02,07,10.90
2017,06,24,02,08,10.90
2017,06,24,02,09,10.90
2017,06,24,02,10,10.90
2017,06,24,02,11,10.90
2017,06,24,02,12,10.90
2017,06,24,02,13,10.90
2017,06,24,02,14,10.90
2017,06,24,02,15,10.80
2017,06,24,02,16,10.80
2017,06,24,02,17,10.80
2017,06,24,02,18,10.80
2017,06,24,02,19,10.80
2017,06,24,02,20,10.80
2017,06,24,02,21,10.80
2017,06,24,02,22,10.80
2017,06,24,02,23,10.70
2017,06,24,02,24,10.70
2017,06,24,02,25,10.70
2017,06,24,02,26,10.70
2017,06,24,02,27,10.70
2017,06,24,02,28,10.70
2017,06,24,02,29,10.70
2017,06,24,02,30,10.70
2017,06,24,02,31,10.70
2017,06,24,02,32,10.60
2017,06,24,02,33,10.60
2017,06,24,02,34,10.60
2017,06,24,02,35,10.60
2017,06,24,02,36,10.60
2017,06,24,02,37,10.60
2017,06,24,02,38,10.60
2017,06,24,02,39,10.60
2017,06,24,02,40,10.50
2017,06,24,02,41,10.50
2017,06,24,02,42,10.50
2017,06,24,02,43,10.50
2017,06,24,02,44,10.40
2017,06,24,02,45,10.40
2017,06,24,02,46,10.40
2017,06,24,02,47,10.40
2017,06,24,02,48,10.40
2017,06,24,02,49,10.40
2017,06,24,02,50,10.40
2017,06,24,02,51,10.40
2017,06,24,02,52,10.40
2017,06,24,02,53,10.30
2017,06,24,02,54,10.30
2017,06,24,02,55,10.30
2017,06,24,02,56,10.30
2017,06,24,02,57,10.30
2017,06,24,02,58,10.30
2017,06,24,02,59,10.30
2017,06,24,03,00,10.20
2017,06,24,03,01,10.20
2017,06,24,03,02,10.20
2017,06,24,03,03,10.20
2017,06,24,03,04,10.20
2017,06,24,03,05,10.20
2017,06,24,03,06,10.10
2017,06,24,03,07,10.10
2017,06,24,03,08,10.10
2017,06,24,03,09,10.10
2017,06,24,03,10,10.10
2017,06,24,03,11,10.10
2017,06,24,03,12,10.10
2017,06,24,03,13,10.00
2017,06,24,03,14,10.00
2017,06,24,03,15,10.00
2017,06,24,03,16,10.00
2017,06,24,03,17,10.00
2017,06,24,03,18,10.00
2017,06,24,03,19,10.00
2017,06,24,03,20,10.00
2017,06,24,03,21,10.00
2017,06,24,03,22,10.00
2017,06,24,03,23,10.00
2017,06,24,03,24,10.00
2017,06,24,03,25,10.00
2017,06,24,03,26,10.00
2017,06,24,03,27,10.00
2017,06,24,03,28,10.00
2017,06,24,03,29,10.00
2017,06,24,03,30,10.00
2017,06,24,03,31,9.90
2017,06,24,03,32,9.90
2017,06,24,03,33,9.90
2017,06,24,03,34,9.90
2017,06,24,03,35,9.90
2017,06,24,03,36,9.90
2017,06,24,03,37,9.90
2017,06,24,03,38,9.90
2017,06,24,03,39,9.90
2017,06,24,03,40,9.90
2017,06,24,03,41,9.90
2017,06,24,03,42,9.90
2017,06,24,03,43,9.90
2017,06,24,03,44,9.90
2017,06,24,03,45,9.90
2017,06,24,03,46,9.90
2017,06,24,03,47,9.90
2017,06,24,03,48,9.90
2017,06,24,03,49,9.90
2017,06,24,03,50,9.90
2017,06,24,03,51,9.80
2017,06,24,03,52,9.80
2017,06,24,03,53,9.80
2017,06,24,03,54,9.80
2017,06,24,03,55,9.80
2017,06,24,03,56,9.80
2017,06,24,03,57,9.70
2017,06,24,03,58,9.70
2017,06,24,03,59,9.70
2017,06,24,04,00,9.70
2017,06,24,04,01,9.70
2017,06,24,04,02,9.70
2017,06,24,04,03,9.70
2017,06,24,04,04,9.70
2017,06,24,04,05,9.70
2017,06,24,04,06,9.70
2017,06,24,04,07,9.70
2017,06,24,04,08,9.70
2017,06,24,04,09,9.70
2017,06,24,04,10,9.60
2017,06,24,04,11,9.60
2017,06,24,04,12,9.60
2017,06,24,04,13,9.60
2017,06,24,04,14,9.60
2017,06,24,04,15,9.60
2017,06,24,04,16,9.60
2017,06,24,04,17,9.60
2017,06,24,04,18,9.60
2017,06,24,04,19,9.60
2017,06,24,04,20,9.60
2017,06,24,04,21,9.60
2017,06,24,04,22,9.60
2017,06,24,04,23,9.50
2017,06,24,04,24,9.50
2017,06,24,04,25,9.50
2017,06,24,04,26,9.50
2017,06,24,04,27,9.50
2017,06,24,04,28,9.50
2017,06,24,04,29,9.50
2017,06,24,04,30,9.50
2017,06,24,04,31,9.50
2017,06,24,04,32,9.50
2017,06,24,04,33,9.40
2017,06,24,04,34,9.40
2017,06,24,04,35,9.40
2017,06,24,04,36,9.40
2017,06,24,04,37,9.40
2017,06,24,04,38,9.40
2017,06,24,04,39,9.30
2017,06,24,04,40,9.30
2017,06,24,04,41,9.30
2017,06,24,04,42,9.30
2017,06,24,04,43,9.30
2017,06,24,04,44,9.30
2017,06,24,04,45,9.30
2017,06,24,04,46,9.30
2017,06,24,04,47,9.20
2017,06,24,04,48,9.20
2017,06,24,04,49,9.20
2017,06,24,04,50,9.20
2017,06,24,04,51,9.20
2017,06,24,04,52,9.20
2017,06,24,04,53,9.20
2017,06,24,04,54,9.20
2017,06,24,04,55,9.20
2017,06,24,04,56,9.20
2017,06,24,04,57,9.20
2017,06,24,04,58,9.20
2017,06,24,04,59,9.20
2017,06,24,05,00,9.20
2017,06,24,05,01,9.20
2017,06,24,05,02,9.10
2017,06,24,05,03,9.10
2017,06,24,05,04,9.10
2017,06,24,05,05,9.10
2017,06,24,05,06,9.10
2017,06,24,05,07,9.10
2017,06,24,05,08,9.10
2017,06,24,05,09,9.10
2017,06,24,05,10,9.10
2017,06,24,05,11,9.10
2017,06,24,05,12,9.10
2017,06,24,05,13,9.10
2017,06,24,05,14,9.10
2017,06,24,05,15,9.10
2017,06,24,05,16,9.10
2017,06,24,05,17,9.10
2017,06,24,05,18,9.10
2017,06,24,05,19,9.10
2017,06,24,05,20,9.10
2017,06,24,05,21,9.10
2017,06,24,05,22,9.10
2017,06,24,05,23,9.00
2017,06,24,05,24,9.00
2017,06,24,05,25,9.00
2017,06,24,05,26,9.00
2017,06,24,05,27,9.00
2017,06,24,05,28,9.00
2017,06,24,05,29,8.90
2017,06,24,05,30,8.90
2017,06,24,05,31,8.90
2017,06,24,05,32,8.90
2017,06,24,05,33,8.90
2017,06,24,05,34,9.00
2017,06,24,05,35,9.00
2017,06,24,05,36,9.00
2017,06,24,05,37,9.00
2017,06,24,05,38,9.00
2017,06,24,05,39,9.00
2017,06,24,05,40,9.00
2017,06,24,05,41,9.00
2017,06,24,05,42,9.00
2017,06,24,05,43,9.00
2017,06,24,05,44,9.00
2017,06,24,05,45,9.00
2017,06,24,05,46,9.00
2017,06,24,05,47,9.00
2017,06,24,05,48,9.00
2017,06,24,05,49,9.10
2017,06,24,05,50,9.10
2017,06,24,05,51,9.10
2017,06,24,05,52,9.10
2017,06,24,05,53,9.10
2017,06,24,05,54,9.10
2017,06,24,05,55,9.10
2017,06,24,05,56,9.10
2017,06,24,05,57,9.10
2017,06,24,05,58,9.10
2017,06,24,05,59,9.10
2017,06,24,06,00,9.10
2017,06,24,06,01,9.10
2017,06,24,06,02,9.10
2017,06,24,06,03,9.10
2017,06,24,06,04,9.10
2017,06,24,06,05,9.10
2017,06,24,06,06,9.10
2017,06,24,06,07,9.10
2017,06,24,06,08,9.10
2017,06,24,06,09,9.10
2017,06,24,06,10,9.20
2017,06,24,06,11,9.20
2017,06,24,06,12,9.20
2017,06,24,06,13,9.30
2017,06,24,06,14,9.30
2017,06,24,06,15,9.40
2017,06,24,06,16,9.50
2017,06,24,06,17,9.50
2017,06,24,06,18,9.60
2017,06,24,06,19,9.70
2017,06,24,06,20,9.80
2017,06,24,06,21,9.90
2017,06,24,06,22,10.00
2017,06,24,06,23,10.10
2017,06,24,06,24,10.10
2017,06,24,06,25,10.20
2017,06,24,06,26,10.30
2017,06,24,06,27,10.40
2017,06,24,06,28,10.50
2017,06,24,06,29,10.50
2017,06,24,06,30,10.60
2017,06,24,06,31,10.70
2017,06,24,06,32,10.80
2017,06,24,06,33,10.80
2017,06,24,06,34,10.90
2017,06,24,06,35,11.00
2017,06,24,06,36,11.00
2017,06,24,06,37,11.10
2017,06,24,06,38,11.20
2017,06,24,06,39,11.30
2017,06,24,06,40,11.50
2017,06,24,06,41,11.70
2017,06,24,06,42,11.90
2017,06,24,06,43,12.00
2017,06,24,06,44,12.20
2017,06,24,06,45,12.40
2017,06,24,06,46,12.60
2017,06,24,06,47,12.90
2017,06,24,06,48,13.10
2017,06,24,06,49,13.30
2017,06,24,06,50,13.60
2017,06,24,06,51,13.80
2017,06,24,06,52,13.90
2017,06,24,06,53,14.10
2017,06,24,06,54,14.20
2017,06,24,06,55,14.40
2017,06,24,06,56,14.50
2017,06,24,06,57,14.70
2017,06,24,06,58,14.80
2017,06,24,06,59,14.90
2017,06,24,07,00,15.00
2017,06,24,07,01,15.20
2017,06,24,07,02,15.30
2017,06,24,07,03,15.40
2017,06,24,07,04,15.60
2017,06,24,07,05,15.70
2017,06,24,07,06,15.80
2017,06,24,07,07,15.90
2017,06,24,07,08,16.00
2017,06,24,07,09,16.10
2017,06,24,07,10,16.20
2017,06,24,07,11,16.30
2017,06,24,07,12,16.40
2017,06,24,07,13,16.60
2017,06,24,07,14,16.70
2017,06,24,07,15,16.80
2017,06,24,07,16,16.90
2017,06,24,07,17,17.00
2017,06,24,07,18,17.10
2017,06,24,07,19,17.20
2017,06,24,07,20,17.30
2017,06,24,07,21,17.40
2017,06,24,07,22,17.40
2017,06,24,07,23,17.50
2017,06,24,07,24,17.60
2017,06,24,07,25,17.60
2017,06,24,07,26,17.60
2017,06,24,07,27,17.70
2017,06,24,07,28,17.70
2017,06,24,07,29,17.80
2017,06,24,07,30,17.80
2017,06,24,07,31,17.90
2017,06,24,07,32,18.00
2017,06,24,07,33,18.00
2017,06,24,07,34,18.10
2017,06,24,07,35,18.10
2017,06,24,07,36,18.20
2017,06,24,07,37,18.30
2017,06,24,07,38,18.40
2017,06,24,07,39,18.50
2017,06,24,07,40,18.50
2017,06,24,07,41,18.60
2017,06,24,07,42,18.60
2017,06,24,07,43,18.60
2017,06,24,07,44,18.80
2017,06,24,07,45,18.80
2017,06,24,07,46,19.00
2017,06,24,07,47,19.00
2017,06,24,07,48,19.10
2017,06,24,07,49,19.20
2017,06,24,07,50,19.20
2017,06,24,07,51,19.30
2017,06,24,07,52,19.40
2017,06,24,07,53,19.50
2017,06,24,07,54,19.60
2017,06,24,07,55,19.70
2017,06,24,07,56,19.80
2017,06,24,07,57,19.90
2017,06,24,07,58,19.90
2017,06,24,07,59,20.00
2017,06,24,08,00,20.10
2017,06,24,08,01,20.20
2017,06,24,08,02,20.30
2017,06,24,08,03,20.40
2017,06,24,08,04,20.50
2017,06,24,08,05,20.60
2017,06,24,08,06,20.70
2017,06,24,08,07,20.80
2017,06,24,08,08,20.80
2017,06,24,08,09,20.90
2017,06,24,08,10,21.00
2017,06,24,08,11,21.10
2017,06,24,08,12,21.10
2017,06,24,08,13,21.20
2017,06,24,08,14,21.20
2017,06,24,08,15,21.30
2017,06,24,08,16,21.30
2017,06,24,08,17,21.40
2017,06,24,08,18,21.50
2017,06,24,08,19,21.50
2017,06,24,08,20,21.60
2017,06,24,08,21,21.70
2017,06,24,08,22,21.80
2017,06,24,08,23,21.90
2017,06,24,08,24,22.00
2017,06,24,08,25,22.00
2017,06,24,08,26,22.10
2017,06,24,08,27,22.20
2017,06,24,08,28,22.20
2017,06,24,08,29,22.20
2017,06,24,08,30,22.30
2017,06,24,08,31,22.40
2017,06,24,08,32,22.40
2017,06,24,08,33,22.50
2017,06,24,08,34,22.60
2017,06,24,08,35,22.60
2017,06,24,08,36,22.70
2017,06,24,08,37,22.70
2017,06,24,08,38,22.80
2017,06,24,08,39,22.80
2017,06,24,08,40,22.90
2017,06,24,08,41,22.90
2017,06,24,08,42,23.00
2017,06,24,08,43,23.00
2017,06,24,08,44,23.10
2017,06,24,08,45,23.10
2017,06,24,08,46,23.20
2017,06,24,08,47,23.20
2017,06,24,08,48,23.30
2017,06,24,08,49,23.30
2017,06,24,08,50,23.30
2017,06,24,08,51,23.30
2017,06,24,08,52,23.30
2017,06,24,08,53,23.30
2017,06,24,08,54,23.30
2017,06,24,08,55,23.30
2017,06,24,08,56,23.20
2017,06,24,08,57,23.30
2017,06,24,08,58,23.30
2017,06,24,08,59,23.30
2017,06,24,09,00,23.30
2017,06,24,09,01,23.30
2017,06,24,09,02,23.20
2017,06,24,09,03,23.20
2017,06,24,09,04,23.20
2017,06,24,09,05,23.20
2017,06,24,09,06,23.20
2017,06,24,09,07,23.20
2017,06,24,09,08,23.20
2017,06,24,09,09,23.20
2017,06,24,09,10,23.30
2017,06,24,09,11,23.30
2017,06,24,09,12,23.30
2017,06,24,09,13,23.30
2017,06,24,09,14,23.30
2017,06,24,09,15,23.20
2017,06,24,09,16,23.20
2017,06,24,09,17,23.20
2017,06,24,09,18,23.20
2017,06,24,09,19,23.10
2017,06,24,09,20,23.10
2017,06,24,09,21,23.10
2017,06,24,09,22,23.20
2017,06,24,09,23,23.30
2017,06,24,09,24,23.40
2017,06,24,09,25,23.50
2017,06,24,09,26,23.60
2017,06,24,09,27,23.70
2017,06,24,09,28,23.80
2017,06,24,09,29,23.80
2017,06,24,09,30,23.80
2017,06,24,09,31,23.80
2017,06,24,09,32,23.80
2017,06,24,09,33,23.80
2017,06,24,09,34,23.90
2017,06,24,09,35,24.00
2017,06,24,09,36,24.00
2017,06,24,09,37,24.10
2017,06,24,09,38,24.20
2017,06,24,09,39,24.30
2017,06,24,09,40,24.20
2017,06,24,09,41,24.30
2017,06,24,09,42,24.30
2017,06,24,09,43,24.40
2017,06,24,09,44,24.50
2017,06,24,09,45,24.60
2017,06,24,09,46,24.60
2017,06,24,09,47,24.60
2017,06,24,09,48,24.60
2017,06,24,09,49,24.50
2017,06,24,09,50,24.50
2017,06,24,09,51,24.40
2017,06,24,09,52,24.40
2017,06,24,09,53,24.40
2017,06,24,09,54,24.40
2017,06,24,09,55,24.50
2017,06,24,09,56,24.60
2017,06,24,09,57,24.70
2017,06,24,09,58,24.80
2017,06,24,09,59,25.00
2017,06,24,10,00,25.10
2017,06,24,10,01,25.20
2017,06,24,10,02,25.20
2017,06,24,10,03,25.30
2017,06,24,10,04,25.30
2017,06,24,10,05,25.40
2017,06,24,10,06,25.50
2017,06,24,10,07,25.50
2017,06,24,10,08,25.50
2017,06,24,10,09,25.60
2017,06,24,10,10,25.60
2017,06,24,10,11,25.70
2017,06,24,10,12,25.70
2017,06,24,10,13,25.80
2017,06,24,10,14,25.80
2017,06,24,10,15,25.80
2017,06,24,10,16,25.80
2017,06,24,10,17,25.80
2017,06,24,10,18,25.70
2017,06,24,10,19,25.60
2017,06,24,10,20,25.50
2017,06,24,10,21,25.40
2017,06,24,10,22,25.40
2017,06,24,10,23,25.40
2017,06,24,10,24,25.30
2017,06,24,10,25,25.30
2017,06,24,10,26,25.30
2017,06,24,10,27,25.30
2017,06,24,10,28,25.30
2017,06,24,10,29,25.40
2017,06,24,10,30,25.40
2017,06,24,10,31,25.50
2017,06,24,10,32,25.60
2017,06,24,10,33,25.70
2017,06,24,10,34,25.70
2017,06,24,10,35,25.70
2017,06,24,10,36,25.70
2017,06,24,10,37,25.60
2017,06,24,10,38,25.60
2017,06,24,10,39,25.60
2017,06,24,10,40,25.50
2017,06,24,10,41,25.50
2017,06,24,10,42,25.40
2017,06,24,10,43,25.40
2017,06,24,10,44,25.40
2017,06,24,10,45,25.50
2017,06,24,10,46,25.60
2017,06,24,10,47,25.70
2017,06,24,10,48,25.80
2017,06,24,10,49,25.90
2017,06,24,10,50,25.90
2017,06,24,10,51,25.80
2017,06,24,10,52,25.90
2017,06,24,10,53,25.90
2017,06,24,10,54,25.90
2017,06,24,10,55,26.00
2017,06,24,10,56,26.00
2017,06,24,10,57,25.90
2017,06,24,10,58,25.90
2017,06,24,10,59,25.90
2017,06,24,11,00,25.90
2017,06,24,11,01,25.90
2017,06,24,11,02,25.90
2017,06,24,11,03,25.90
2017,06,24,11,04,25.90
2017,06,24,11,05,26.00
2017,06,24,11,06,26.00
2017,06,24,11,07,26.00
2017,06,24,11,08,25.90
2017,06,24,11,09,26.00
2017,06,24,11,10,26.00
2017,06,24,11,11,26.00
2017,06,24,11,12,26.00
2017,06,24,11,13,26.00
2017,06,24,11,14,26.00
2017,06,24,11,15,26.00
2017,06,24,11,16,26.00
2017,06,24,11,17,26.10
2017,06,24,11,18,26.20
2017,06,24,11,19,26.20
2017,06,24,11,20,26.20
2017,06,24,11,21,26.20
2017,06,24,11,22,26.10
2017,06,24,11,23,26.00
2017,06,24,11,24,25.90
2017,06,24,11,25,25.90
2017,06,24,11,26,25.90
2017,06,24,11,27,25.90
2017,06,24,11,28,26.00
2017,06,24,11,29,26.10
2017,06,24,11,30,26.10
2017,06,24,11,31,26.10
2017,06,24,11,32,26.10
2017,06,24,11,33,26.00
2017,06,24,11,34,25.90
2017,06,24,11,35,25.80
2017,06,24,11,36,25.70
2017,06,24,11,37,25.70
2017,06,24,11,38,25.70
2017,06,24,11,39,25.70
2017,06,24,11,40,25.70
2017,06,24,11,41,25.80
2017,06,24,11,42,25.80
2017,06,24,11,43,25.80
2017,06,24,11,44,25.90
2017,06,24,11,45,25.90
2017,06,24,11,46,25.80
2017,06,24,11,47,25.80
2017,06,24,11,48,25.70
2017,06,24,11,49,25.70
2017,06,24,11,50,25.70
2017,06,24,11,51,25.80
2017,06,24,11,52,25.90
2017,06,24,11,53,26.00
2017,06,24,11,54,26.00
2017,06,24,11,55,26.00
2017,06,24,11,56,25.90
2017,06,24,11,57,25.90
2017,06,24,11,58,25.80
2017,06,24,11,59,25.80
2017,06,24,12,00,25.80
2017,06,24,12,01,25.80
2017,06,24,12,02,25.90
2017,06,24,12,03,26.00
2017,06,24,12,04,26.10
2017,06,24,12,05,26.20
2017,06,24,12,06,26.30
2017,06,24,12,07,26.50
2017,06,24,12,08,26.60
2017,06,24,12,09,26.70
2017,06,24,12,10,26.80
2017,06,24,12,11,26.80
2017,06,24,12,12,26.80
2017,06,24,12,13,26.90
2017,06,24,12,14,26.90
2017,06,24,12,15,27.00
2017,06,24,12,16,27.00
2017,06,24,12,17,27.00
2017,06,24,12,18,27.00
2017,06,24,12,19,27.10
2017,06,24,12,20,27.10
2017,06,24,12,21,27.10
2017,06,24,12,22,27.10
2017,06,24,12,23,27.20
2017,06,24,12,24,27.20
2017,06,24,12,25,27.30
2017,06,24,12,26,27.30
2017,06,24,12,27,27.40
2017,06,24,12,28,27.40
2017,06,24,12,29,27.40
2017,06,24,12,30,27.40
2017,06,24,12,31,27.50
2017,06,24,12,32,27.50
2017,06,24,12,33,27.50
2017,06,24,12,34,27.60
2017,06,24,12,35,27.60
2017,06,24,12,36,27.60
2017,06,24,12,37,27.60
2017,06,24,12,38,27.60
2017,06,24,12,39,27.50
2017,06,24,12,40,27.50
2017,06,24,12,41,27.50
2017,06,24,12,42,27.50
2017,06,24,12,43,27.50
2017,06,24,12,44,27.50
2017,06,24,12,45,27.40
2017,06,24,12,46,27.40
2017,06,24,12,47,27.40
2017,06,24,12,48,27.40
2017,06,24,12,49,27.30
2017,06,24,12,50,27.30
2017,06,24,12,51,27.30
2017,06,24,12,52,27.20
2017,06,24,12,53,27.20
2017,06,24,12,54,27.10
2017,06,24,12,55,27.10
2017,06,24,12,56,27.10
2017,06,24,12,57,27.00
2017,06,24,12,58,27.00
2017,06,24,12,59,27.00
2017,06,24,13,00,27.00
2017,06,24,13,01,27.00
2017,06,24,13,02,27.00
2017,06,24,13,03,27.00
2017,06,24,13,04,27.00
2017,06,24,13,05,27.00
2017,06,24,13,06,27.00
2017,06,24,13,07,27.00
2017,06,24,13,08,27.10
2017,06,24,13,09,27.10
2017,06,24,13,10,27.20
2017,06,24,13,11,27.20
2017,06,24,13,12,27.20
2017,06,24,13,13,27.10
2017,06,24,13,14,27.10
2017,06,24,13,15,27.00
2017,06,24,13,16,26.90
2017,06,24,13,17,26.90
2017,06,24,13,18,27.00
2017,06,24,13,19,27.10
2017,06,24,13,20,27.10
2017,06,24,13,21,27.20
2017,06,24,13,22,27.20
2017,06,24,13,23,27.20
2017,06,24,13,24,27.20
2017,06,24,13,25,27.10
2017,06,24,13,26,27.00
2017,06,24,13,27,27.00
2017,06,24,13,28,26.90
2017,06,24,13,29,26.90
2017,06,24,13,30,26.90
2017,06,24,13,31,27.00
2017,06,24,13,32,27.00
2017,06,24,13,33,27.10
2017,06,24,13,34,27.10
2017,06,24,13,35,27.20
2017,06,24,13,36,27.30
2017,06,24,13,37,27.30
2017,06,24,13,38,27.30
2017,06,24,13,39,27.30
2017,06,24,13,40,27.40
2017,06,24,13,41,27.40
2017,06,24,13,42,27.40
2017,06,24,13,43,27.40
2017,06,24,13,44,27.40
2017,06,24,13,45,27.30
2017,06,24,13,46,27.30
2017,06,24,13,47,27.30
2017,06,24,13,48,27.40
2017,06,24,13,49,27.40
2017,06,24,13,50,27.40
2017,06,24,13,51,27.50
2017,06,24,13,52,27.60
2017,06,24,13,53,27.60
2017,06,24,13,54,27.60
2017,06,24,13,55,27.50
2017,06,24,13,56,27.40
2017,06,24,13,57,27.30
2017,06,24,13,58,27.30
2017,06,24,13,59,27.30
2017,06,24,14,00,27.30
2017,06,24,14,01,27.30
2017,06,24,14,02,27.30
2017,06,24,14,03,27.40
2017,06,24,14,04,27.40
2017,06,24,14,05,27.40
2017,06,24,14,06,27.40
2017,06,24,14,07,27.40
2017,06,24,14,08,27.40
2017,06,24,14,09,27.40
2017,06,24,14,10,27.40
2017,06,24,14,11,27.40
2017,06,24,14,12,27.40
2017,06,24,14,13,27.50
2017,06,24,14,14,27.50
2017,06,24,14,15,27.60
2017,06,24,14,16,27.60
2017,06,24,14,17,27.70
2017,06,24,14,18,27.80
2017,06,24,14,19,27.80
2017,06,24,14,20,27.90
2017,06,24,14,21,27.90
2017,06,24,14,22,27.90
2017,06,24,14,23,27.90
2017,06,24,14,24,28.00
2017,06,24,14,25,28.00
2017,06,24,14,26,28.10
2017,06,24,14,27,28.10
2017,06,24,14,28,28.20
2017,06,24,14,29,28.30
2017,06,24,14,30,28.30
2017,06,24,14,31,28.30
2017,06,24,14,32,28.30
2017,06,24,14,33,28.30
2017,06,24,14,34,28.40
2017,06,24,14,35,28.40
2017,06,24,14,36,28.40
2017,06,24,14,37,28.40
2017,06,24,14,38,28.40
2017,06,24,14,39,28.40
2017,06,24,14,40,28.40
2017,06,24,14,41,28.40
2017,06,24,14,42,28.40
2017,06,24,14,43,28.40
2017,06,24,14,44,28.50
2017,06,24,14,45,28.50
2017,06,24,14,46,28.50
2017,06,24,14,47,28.50
2017,06,24,14,48,28.60
2017,06,24,14,49,28.60
2017,06,24,14,50,28.60
2017,06,24,14,51,28.60
2017,06,24,14,52,28.60
2017,06,24,14,53,28.60
2017,06,24,14,54,28.60
2017,06,24,14,55,28.60
2017,06,24,14,56,28.60
2017,06,24,14,57,28.70
2017,06,24,14,58,28.70
2017,06,24,14,59,28.80
2017,06,24,15,00,28.80
2017,06,24,15,01,28.80
2017,06,24,15,02,28.90
2017,06,24,15,03,28.80
2017,06,24,15,04,28.80
2017,06,24,15,05,28.80
2017,06,24,15,06,28.80
2017,06,24,15,07,28.80
2017,06,24,15,08,28.80
2017,06,24,15,09,28.70
2017,06,24,15,10,28.70
2017,06,24,15,11,28.70
2017,06,24,15,12,28.70
2017,06,24,15,13,28.80
2017,06,24,15,14,28.80
2017,06,24,15,15,28.80
2017,06,24,15,16,28.80
2017,06,24,15,17,28.80
2017,06,24,15,18,28.70
2017,06,24,15,19,28.70
2017,06,24,15,20,28.80
2017,06,24,15,21,28.80
2017,06,24,15,22,28.80
2017,06,24,15,23,28.80
2017,06,24,15,24,28.80
2017,06,24,15,25,28.80
2017,06,24,15,26,28.80
2017,06,24,15,27,28.80
2017,06,24,15,28,28.80
2017,06,24,15,29,28.80
2017,06,24,15,30,28.80
2017,06,24,15,31,28.90
2017,06,24,15,32,28.90
2017,06,24,15,33,29.00
2017,06,24,15,34,29.10
2017,06,24,15,35,29.20
2017,06,24,15,36,29.30
2017,06,24,15,37,29.30
2017,06,24,15,38,29.40
2017,06,24,15,39,29.40
2017,06,24,15,40,29.40
2017,06,24,15,41,29.30
2017,06,24,15,42,29.30
2017,06,24,15,43,29.20
2017,06,24,15,44,29.20
2017,06,24,15,45,29.20
2017,06,24,15,46,29.20
2017,06,24,15,47,29.20
2017,06,24,15,48,29.20
2017,06,24,15,49,29.20
2017,06,24,15,50,29.30
2017,06,24,15,51,29.30
2017,06,24,15,52,29.30
2017,06,24,15,53,29.30
2017,06,24,15,54,29.40
2017,06,24,15,55,29.50
2017,06,24,15,56,29.50
2017,06,24,15,57,29.60
2017,06,24,15,58,29.60
2017,06,24,15,59,29.60
2017,06,24,16,00,29.60
2017,06,24,16,01,29.70
2017,06,24,16,02,29.70
2017,06,24,16,03,29.70
2017,06,24,16,04,29.70
2017,06,24,16,05,29.70
2017,06,24,16,06,29.80
2017,06,24,16,07,29.80
2017,06,24,16,08,29.70
2017,06,24,16,09,29.70
2017,06,24,16,10,29.60
2017,06,24,16,11,29.50
2017,06,24,16,12,29.50
2017,06,24,16,13,29.40
2017,06,24,16,14,29.40
2017,06,24,16,15,29.50
2017,06,24,16,16,29.50
2017,06,24,16,17,29.50
2017,06,24,16,18,29.60
2017,06,24,16,19,29.60
2017,06,24,16,20,29.60
2017,06,24,16,21,29.60
2017,06,24,16,22,29.60
2017,06,24,16,23,29.60
2017,06,24,16,24,29.60
2017,06,24,16,25,29.60
2017,06,24,16,26,29.60
2017,06,24,16,27,29.50
2017,06,24,16,28,29.50
2017,06,24,16,29,29.50
2017,06,24,16,30,29.50
2017,06,24,16,31,29.50
2017,06,24,16,32,29.50
2017,06,24,16,33,29.50
2017,06,24,16,34,29.50
2017,06,24,16,35,29.60
2017,06,24,16,36,29.60
2017,06,24,16,37,29.60
2017,06,24,16,38,29.60
2017,06,24,16,39,29.60
2017,06,24,16,40,29.60
2017,06,24,16,41,29.70
2017,06,24,16,42,29.70
2017,06,24,16,43,29.70
2017,06,24,16,44,29.80
2017,06,24,16,45,29.80
2017,06,24,16,46,29.80
2017,06,24,16,47,29.90
2017,06,24,16,48,29.90
2017,06,24,16,49,30.00
2017,06,24,16,50,30.00
2017,06,24,16,51,30.00
2017,06,24,16,52,29.90
2017,06,24,16,53,29.90
2017,06,24,16,54,29.90
2017,06,24,16,55,29.90
2017,06,24,16,56,29.90
2017,06,24,16,57,29.90
2017,06,24,16,58,29.90
2017,06,24,16,59,29.90
2017,06,24,17,00,29.90
2017,06,24,17,01,29.90
2017,06,24,17,02,29.90
2017,06,24,17,03,30.00
2017,06,24,17,04,30.00
2017,06,24,17,05,30.10
2017,06,24,17,06,30.10
2017,06,24,17,07,30.10
2017,06,24,17,08,30.10
2017,06,24,17,09,30.10
2017,06,24,17,10,30.10
2017,06,24,17,11,30.10
2017,06,24,17,12,30.10
2017,06,24,17,13,30.10
2017,06,24,17,14,30.00
2017,06,24,17,15,30.00
2017,06,24,17,16,30.00
2017,06,24,17,17,29.90
2017,06,24,17,18,29.90
2017,06,24,17,19,29.80
2017,06,24,17,20,29.80
2017,06,24,17,21,29.70
2017,06,24,17,22,29.70
2017,06,24,17,23,29.70
2017,06,24,17,24,29.70
2017,06,24,17,25,29.70
2017,06,24,17,26,29.70